When you browse on this site, cookies collect data to enhance your experience and personalize the content and advertising you see.
Visit our Privacy Policy to learn more. By continuing to use the site, you agree to this use of cookies and data.
  • In Hungary
  • List of Countries
  • For 7 days
  • Water Temperature
  • Weather Map
  • News
  • Weather Widgets
  • user-avatar
    Login

    Hourly Weather Milonovka

    Today, 18 January, Saturday

    Time Temperature Precipitation Wind Pressure Humidity
    00:00 -9°C° 0 mm 6 mps 732 mmHg 92%
    01:00 -9°C° 0.3 mm 6 mps 732 mmHg 92%
    02:00 -8°C° 0.3 mm 6 mps 732 mmHg 93%
    03:00 -8°C° 0.3 mm 6 mps 732 mmHg 93%
    04:00 -8°C° 0.4 mm 6 mps 732 mmHg 93%
    05:00 -9°C° 0.4 mm 7 mps 733 mmHg 92%
    06:00 -11°C° 0 mm 7 mps 734 mmHg 91%
    07:00 -14°C° 0.1 mm 7 mps 736 mmHg 90%
    08:00 -16°C° 0.1 mm 6 mps 737 mmHg 90%
    09:00 -19°C° 0.1 mm 5 mps 739 mmHg 89%
    10:00 -20°C° 0 mm 5 mps 741 mmHg 88%
    11:00 -21°C° 0 mm 5 mps 742 mmHg 88%
    12:00 -22°C° 0 mm 5 mps 745 mmHg 87%
    13:00 -22°C° 0 mm 4 mps 745 mmHg 87%
    14:00 -22°C° 0 mm 4 mps 746 mmHg 86%
    15:00 -21°C° 0 mm 3 mps 747 mmHg 85%
    16:00 -21°C° 0 mm 3 mps 748 mmHg 86%
    17:00 -23°C° 0 mm 4 mps 749 mmHg 88%
    18:00 -23°C° 0 mm 4 mps 750 mmHg 90%
    19:00 -24°C° 0 mm 4 mps 750 mmHg 90%
    20:00 -24°C° 0 mm 4 mps 750 mmHg 90%
    21:00 -24°C° 0 mm 4 mps 750 mmHg 89%
    22:00 -23°C° 0 mm 4 mps 749 mmHg 87%
    23:00 -22°C° 0 mm 3 mps 749 mmHg 85%

    Tomorrow, 19 January, Sunday

    Time Temperature Precipitation Wind Pressure Humidity
    00:00 -22°C° 0 mm 3 mps 748 mmHg 83%
    01:00 -22°C° 0 mm 3 mps 747 mmHg 84%
    02:00 -23°C° 0 mm 4 mps 746 mmHg 84%
    03:00 -23°C° 0 mm 4 mps 745 mmHg 84%
    04:00 -23°C° 0 mm 4 mps 744 mmHg 85%
    05:00 -22°C° 0 mm 4 mps 742 mmHg 87%
    06:00 -22°C° 0 mm 4 mps 741 mmHg 88%
    07:00 -19°C° 0.1 mm 4 mps 739 mmHg 90%
    08:00 -19°C° 0.1 mm 5 mps 738 mmHg 92%
    09:00 -17°C° 0.1 mm 5 mps 737 mmHg 93%
    10:00 -14°C° 0.5 mm 5 mps 736 mmHg 93%
    11:00 -12°C° 0.5 mm 5 mps 735 mmHg 93%
    12:00 -10°C° 0.5 mm 5 mps 735 mmHg 93%
    13:00 -11°C° 0.4 mm 5 mps 734 mmHg 92%
    14:00 -12°C° 0.4 mm 5 mps 734 mmHg 92%
    15:00 -14°C° 0.4 mm 5 mps 734 mmHg 91%
    16:00 -15°C° 0.1 mm 5 mps 735 mmHg 91%
    17:00 -18°C° 0.1 mm 5 mps 736 mmHg 91%
    18:00 -18°C° 0.1 mm 4 mps 737 mmHg 90%
    19:00 -19°C° 0 mm 4 mps 737 mmHg 92%
    20:00 -20°C° 0 mm 4 mps 738 mmHg 94%
    21:00 -22°C° 0 mm 3 mps 739 mmHg 95%
    22:00 -22°C° 0 mm 3 mps 740 mmHg 95%
    23:00 -22°C° 0 mm 3 mps 740 mmHg 96%

    Day after tomorrow, 20 January, Monday

    Time Temperature Precipitation Wind Pressure Humidity
    00:00 -23°C° 0 mm 3 mps 741 mmHg 96%
    01:00 -23°C° 0 mm 3 mps 741 mmHg 96%
    02:00 -23°C° 0 mm 3 mps 741 mmHg 96%
    03:00 -23°C° 0 mm 3 mps 742 mmHg 96%
    04:00 -23°C° 0 mm 3 mps 743 mmHg 96%
    05:00 -24°C° 0 mm 3 mps 743 mmHg 97%
    06:00 -24°C° 0 mm 3 mps 744 mmHg 97%
    07:00 -26°C° 0 mm 3 mps 744 mmHg 98%
    08:00 -27°C° 0 mm 3 mps 744 mmHg 98%
    09:00 -28°C° 0 mm 2 mps 744 mmHg 99%
    10:00 -29°C° 0 mm 3 mps 745 mmHg 98%
    11:00 -29°C° 0 mm 3 mps 745 mmHg 97%
    12:00 -27°C° 0 mm 3 mps 745 mmHg 96%
    13:00 -27°C° 0 mm 3 mps 745 mmHg 95%
    14:00 -29°C° 0 mm 4 mps 745 mmHg 94%
    15:00 -27°C° 0 mm 4 mps 745 mmHg 93%
    16:00 -29°C° 0 mm 4 mps 745 mmHg 93%
    17:00 -29°C° 0 mm 4 mps 746 mmHg 93%
    18:00 -29°C° 0 mm 4 mps 746 mmHg 93%
    19:00 -29°C° 0 mm 4 mps 746 mmHg 93%
    20:00 -29°C° 0 mm 4 mps 746 mmHg 94%
    21:00 -29°C° 0 mm 4 mps 746 mmHg 94%
    22:00 -30°C° 0 mm 4 mps 745 mmHg 93%
    23:00 -30°C° 0 mm 4 mps 745 mmHg 92%

    21 January, Tuesday

    Time Temperature Precipitation Wind Pressure Humidity
    00:00 -32°C° 0 mm 5 mps 745 mmHg 91%
    01:00 -32°C° 0 mm 5 mps 744 mmHg 90%
    02:00 -32°C° 0 mm 5 mps 744 mmHg 90%
    03:00 -33°C° 0 mm 5 mps 744 mmHg 89%
    04:00 -33°C° 0 mm 5 mps 743 mmHg 90%
    05:00 -33°C° 0 mm 5 mps 743 mmHg 90%
    06:00 -33°C° 0 mm 5 mps 743 mmHg 90%
    07:00 -33°C° 0 mm 5 mps 743 mmHg 91%
    08:00 -33°C° 0 mm 5 mps 743 mmHg 91%
    09:00 -32°C° 0 mm 4 mps 743 mmHg 92%
    10:00 -31°C° 0 mm 4 mps 743 mmHg 93%
    11:00 -30°C° 0 mm 4 mps 743 mmHg 93%
    12:00 -29°C° 0 mm 4 mps 743 mmHg 94%
    13:00 -29°C° 0 mm 4 mps 743 mmHg 94%
    14:00 -26°C° 0 mm 3 mps 743 mmHg 95%
    15:00 -26°C° 0 mm 3 mps 743 mmHg 95%
    16:00 -27°C° 0 mm 3 mps 743 mmHg 96%
    17:00 -27°C° 0 mm 2 mps 744 mmHg 97%
    18:00 -28°C° 0 mm 2 mps 744 mmHg 99%
    19:00 -28°C° 0 mm 2 mps 745 mmHg 99%
    20:00 -27°C° 0 mm 1 mps 745 mmHg 99%
    21:00 -27°C° 0 mm 1 mps 745 mmHg 99%
    22:00 -28°C° 0 mm 1 mps 746 mmHg 99%
    23:00 -28°C° 0 mm 1 mps 746 mmHg 99%

    22 January, Wednesday

    Time Temperature Precipitation Wind Pressure Humidity
    00:00 -28°C° 0 mm 1 mps 747 mmHg 98%
    01:00 -28°C° 0 mm 1 mps 747 mmHg 98%
    02:00 -28°C° 0 mm 1 mps 747 mmHg 98%
    03:00 -28°C° 0 mm 1 mps 747 mmHg 98%
    04:00 -28°C° 0 mm 1 mps 747 mmHg 98%
    05:00 -28°C° 0 mm 1 mps 747 mmHg 97%
    06:00 -28°C° 0 mm 1 mps 747 mmHg 97%
    07:00 -29°C° 0 mm 2 mps 747 mmHg 96%
    08:00 -29°C° 0 mm 2 mps 747 mmHg 96%
    09:00 -29°C° 0 mm 2 mps 747 mmHg 95%
    10:00 -27°C° 0 mm 2 mps 747 mmHg 93%
    11:00 -25°C° 0 mm 2 mps 746 mmHg 91%
    12:00 -24°C° 0 mm 3 mps 746 mmHg 88%
    13:00 -23°C° 0 mm 3 mps 745 mmHg 89%
    14:00 -22°C° 0 mm 3 mps 745 mmHg 90%
    15:00 -21°C° 0 mm 3 mps 744 mmHg 91%
    16:00 -21°C° 0.1 mm 3 mps 744 mmHg 92%
    17:00 -19°C° 0.1 mm 3 mps 743 mmHg 94%
    18:00 -18°C° 0.1 mm 3 mps 743 mmHg 95%
    19:00 -16°C° 0.1 mm 2 mps 743 mmHg 95%
    20:00 -15°C° 0.1 mm 2 mps 743 mmHg 95%
    21:00 -14°C° 0.1 mm 2 mps 742 mmHg 95%
    22:00 -14°C° 0.2 mm 3 mps 742 mmHg 95%
    23:00 -13°C° 0.2 mm 3 mps 742 mmHg 94%

    23 January, Thursday

    Time Temperature Precipitation Wind Pressure Humidity
    00:00 -12°C° 0.2 mm 3 mps 742 mmHg 94%
    01:00 -13°C° 0.1 mm 3 mps 742 mmHg 94%
    02:00 -13°C° 0.1 mm 3 mps 742 mmHg 93%
    03:00 -13°C° 0.1 mm 3 mps 742 mmHg 93%
    04:00 -14°C° 0.1 mm 4 mps 742 mmHg 93%
    05:00 -14°C° 0.1 mm 4 mps 742 mmHg 93%
    06:00 -12°C° 0.1 mm 4 mps 742 mmHg 93%
    07:00 -12°C° 0.2 mm 4 mps 742 mmHg 93%
    08:00 -11°C° 0.2 mm 4 mps 741 mmHg 93%
    09:00 -11°C° 0.2 mm 4 mps 741 mmHg 93%
    10:00 -10°C° 0.1 mm 4 mps 741 mmHg 93%
    11:00 -11°C° 0.1 mm 5 mps 741 mmHg 92%
    12:00 -10°C° 0.1 mm 5 mps 741 mmHg 92%
    13:00 -10°C° 0.2 mm 5 mps 740 mmHg 92%
    14:00 -8°C° 0.2 mm 5 mps 740 mmHg 92%
    15:00 -8°C° 0.2 mm 5 mps 740 mmHg 92%
    16:00 -8°C° 0.3 mm 5 mps 739 mmHg 93%
    17:00 -8°C° 0.3 mm 5 mps 739 mmHg 93%
    18:00 -8°C° 0.3 mm 5 mps 739 mmHg 94%
    19:00 -7°C° 0.3 mm 5 mps 738 mmHg 94%
    20:00 -7°C° 0.3 mm 5 mps 738 mmHg 94%
    21:00 -7°C° 0.3 mm 5 mps 737 mmHg 94%
    22:00 -7°C° 0.4 mm 5 mps 737 mmHg 94%
    23:00 -7°C° 0.4 mm 5 mps 736 mmHg 94%
    Show more